User: anonymous   Login
Location: Prairie State College
(41.5244°N, 87.6382°W)
Time: 11:56:23
(UTC-05:00)
Language:

Cosmos 1943 - Orbit

View from above orbital plane
View from above orbital plane
View from above satellite
View from above satellite

Ground track
Ground track

The orbit data is extracted from the following two-line orbital elements,

1 19119U 88039A   15240.21419367 -.00000104  00000-0 -28911-4 0  9996
2 19119 071.0036 045.5623 0012692 330.3432 149.7705 14.15033534408872
Epoch (UTC): 28 August 2015 05:08:26
Eccentricity: 0.0012692
inclination: 71.0036°
perigee height: 833 km
apogee height: 851 km
right ascension of ascending node: 45.5623°
argument of perigee: 330.3432°
revolutions per day: 14.15033534
mean anomaly at epoch: 149.7705°
orbit number at epoch: 40887

The dashed part of the orbit path shows where the satellite is in the earth's shadow,  

DLR